{"data":{"norad_id":62509,"intl_designator":"2025-003Y","name":"STARLINK-32744","alt_names":[],"object_type":"PAYLOAD","status":"ACTIVE","operator":null,"country":"US","launch_date":"2025-01-06","launch_site_code":"AFETR","launch_vehicle":null,"mission":null,"orbit_class":"UNKNOWN","rcs_meters":null,"size_class":null,"mass_kg":null,"dimensions":null,"purposes":["comms"],"wikipedia_slug":null,"has_3d_model":false,"image_url":null,"decayed_at":null,"tle_current":{"epoch":"2026-09-21T16:32:42.394848Z","epoch_age_seconds":71768,"freshness":"FRESH","line1":"1 62509U 25003Y   26264.68937957  .00008699  00000+0  32514-3 0  9995","line2":"2 62509  43.0008 262.3754 0000558 312.4940  47.5865 15.27592635 96521","mean_motion":15.27592635,"eccentricity":5.58e-5,"inclination_deg":43.0008,"raan_deg":262.3754,"arg_perigee_deg":312.494,"mean_anomaly_deg":47.5865,"bstar":0.00032514,"rev_number":9652,"period_min":94.265969016013,"perigee_km":482.62841049196,"apogee_km":483.39411463806,"semimajor_km":6861.148262565,"source":"CELESTRAK","updated_at":"2026-09-22T09:00:49.620806Z"}}}